[[{"header":{"parameterUnit":"m.s-1","parameterCategory":1,"la1":30.2991,"la2":30.254,"lo1":-89.0895,"lo2":-89.0444,"dy":0.0017,"dx":0.0017,"nx":28,"ny":28,"refTime":"2025-05-30T03:00:00:Z","depth":0,"parameterNumber":2,"parameterNumberName":"U-component_of_WINDS"},"data":[0,0,0,0,0,0,0,0,0,0,0,0,0,0,0,0,0,0,0,0,0,0,0,0,0,0,0,0,0,0,0,0,0,0,0,0,0,0,0,0,0,0,0,0,0,0,0,0,0,0,0,0,0,0,0,0,0,0,3.1667,3.1668,0,3.1811,3.1813,3.1814,3.1878,3.1877,3.1877,3.1877,3.2011,3.2014,3.2018,0,0,0,0,0,0,0,0,0,0,0,0,0,3.1434,3.1438,3.1667,3.1669,3.167,3.1811,3.1813,3.1815,3.1878,3.1877,3.1877,3.1877,3.201,3.2014,3.2018,0,0,0,0,0,0,0,0,0,0,0,0,0,3.1552,3.1439,3.1666,3.1719,3.1725,3.1811,3.1813,3.1815,3.1878,3.1877,3.1877,3.1877,3.2008,3.2014,3.2019,3.2058,0,0,3.2036,3.2038,0,0,0,0,0,0,0,0,3.1545,3.156,3.1709,3.1716,3.1723,3.1827,3.178,3.1896,3.1878,3.1819,3.1877,3.1877,3.1949,3.1959,3.1986,3.2065,3.207,3.2037,3.204,3.2042,3.2044,0,0,0,0,0,0,0,3.1537,3.1554,3.1723,3.1711,3.172,3.1732,3.1748,3.1802,3.1883,3.1824,3.1829,3.1846,3.1952,3.1981,3.199,3.2072,3.2036,3.2041,3.2045,3.2047,3.2193,3.2193,0,0,0,0,0,0,3.1522,3.1547,3.1719,3.1728,3.1632,3.1736,3.1755,3.1793,3.1883,3.1897,3.1846,3.1849,3.1971,3.1983,3.1995,3.2049,3.2042,3.2047,3.2051,3.2192,3.2193,3.2193,0,0,0,0,0,0,3.1517,3.1537,3.1713,3.1639,3.1663,3.1741,3.1783,3.1796,3.1825,3.19,3.1913,3.1862,3.1972,3.1987,3.2044,3.2054,3.205,3.2055,3.2192,3.2192,3.2193,3.2155,0,0,0,0,0,0,3.151,3.1534,3.1552,3.1639,3.1666,3.1763,3.1784,3.1799,3.1836,3.1841,3.1918,3.193,3.1973,3.2035,3.2049,3.2062,3.2059,3.2191,3.2192,3.2193,3.2156,3.2155,3.2154,0,0,0,0,0,3.1501,3.1532,3.1553,3.1573,3.1691,3.1763,3.1778,3.1831,3.1837,3.1854,3.1903,3.1927,3.2051,3.204,3.2057,3.2071,3.219,3.2192,3.2193,3.2156,3.2155,3.2154,0,0,0,0,0,0,3.1438,3.1544,3.1568,3.1629,3.1688,3.1774,3.1797,3.1827,3.188,3.1882,3.1941,3.1957,3.2009,3.2046,3.2032,3.2115,3.2123,3.2127,3.2089,3.2089,3.2087,3.2077,3.2064,0,0,0,0,0,3.1432,3.1486,3.1574,3.1619,3.1648,3.1718,3.175,3.1787,3.1847,3.1871,3.1923,3.1977,3.2029,3.2061,3.2112,3.2162,3.2179,3.218,3.2179,3.2178,3.218,3.2211,3.2212,3.2197,3.2197,3.2197,0,0,3.1418,3.1483,3.1512,3.1608,3.1657,3.1709,3.1737,3.1789,3.1827,3.1877,3.1936,3.1976,3.204,3.2095,3.2121,3.2127,3.2189,3.2179,3.2178,3.2181,3.2212,3.2213,3.2215,3.2198,3.2198,3.2198,0,0,3.142,3.1475,3.152,3.1571,3.1648,3.1695,3.1705,3.1789,3.182,3.1881,3.192,3.1964,3.2051,3.2096,3.213,3.2154,3.2179,3.2169,3.2162,3.2191,3.2192,3.2194,3.2202,3.2205,3.2172,3.2171,3.2171,0,3.1391,3.1475,3.1537,3.159,3.163,3.1685,3.173,3.1774,3.1861,3.1886,3.1893,3.2006,3.2053,3.212,3.2126,3.2152,3.2165,3.2159,3.2188,3.219,3.2192,3.2201,3.2204,3.217,3.217,3.217,3.217,0,3.1436,3.1493,3.152,3.161,3.1654,3.1701,3.1769,3.1805,3.1839,3.1884,3.1946,3.2005,3.207,3.2089,3.2119,3.2161,3.2162,3.2178,3.2186,3.2191,3.22,3.2204,3.2167,3.2168,3.2168,3.2169,0,0,3.1397,3.1527,3.1535,3.1579,3.167,3.1713,3.1763,3.1833,3.1863,3.1922,3.1964,3.2039,3.2056,3.2095,3.2131,3.2157,3.2173,3.217,3.2172,3.2168,3.2223,3.221,3.2213,3.2192,3.2193,3.2193,3.2217,0,3.1411,3.1509,3.1569,3.1641,3.1694,3.1749,3.1793,3.1852,3.1896,3.1945,3.1993,3.2046,3.2064,3.2088,3.2116,3.2165,3.2185,3.2165,3.2228,3.223,3.221,3.2218,3.2204,3.2224,3.2221,3.2222,3.2223,0,3.1439,3.1504,3.1583,3.1673,3.1697,3.1736,3.1807,3.1854,3.1921,3.1952,3.1999,3.2037,3.209,3.2096,3.2168,3.2153,3.2183,3.2212,3.2214,3.222,3.2225,3.2224,3.2231,3.2234,3.2229,3.2228,3.2228,0,3.1403,3.151,3.1572,3.1607,3.1713,3.1739,3.1783,3.1852,3.1891,3.1951,3.1977,3.204,3.2074,3.2121,3.2175,3.2174,3.2242,3.2252,3.2266,3.2265,3.2276,3.2274,3.2287,3.2297,3.2297,3.2297,3.2297,0,3.1411,3.1457,3.1559,3.1596,3.1649,3.1718,3.1767,3.1815,3.1876,3.1922,3.1972,3.2012,3.2082,3.2131,3.2173,3.2226,3.2241,3.2265,3.2276,3.2261,3.2257,3.2279,3.2279,3.2298,3.2297,3.2297,3.2297,0,3.1378,3.1449,3.152,3.1617,3.1643,3.1678,3.1759,3.1796,3.1846,3.1903,3.192,3.1996,3.2057,3.2117,3.2196,3.2224,3.2277,3.2291,3.2256,3.2262,3.2273,3.227,3.2299,3.2306,3.2311,3.2311,3.2311,0,3.1378,3.1417,3.152,3.1558,3.1603,3.1661,3.1704,3.1773,3.1814,3.1898,3.1924,3.199,3.2047,3.214,3.22,3.2261,3.2277,3.2283,3.2285,3.227,3.2276,3.2273,3.2277,3.228,3.228,3.2279,3.2279,0,3.1371,3.1406,3.1468,3.1544,3.1595,3.1656,3.1718,3.1745,3.1825,3.1869,3.1935,3.1979,3.2065,3.2128,3.2198,3.2239,3.2272,3.2279,3.2285,3.2269,3.2247,3.2259,3.2251,3.2277,3.2277,3.2277,3.2277,3.2277,3.1354,3.1392,3.1473,3.1541,3.1597,3.1656,3.1697,3.1756,3.1814,3.1892,3.1928,3.1995,3.2063,3.2161,3.2203,3.2253,3.2261,3.227,3.2272,3.2273,3.227,3.2241,3.2266,3.2266,3.2266,3.2266,3.2267,0,3.1349,3.1406,3.1469,3.1559,3.1613,3.1646,3.1718,3.1759,3.1819,3.1883,3.194,3.2016,3.208,3.2147,3.2214,3.2242,3.2258,3.2257,3.2254,3.2263,3.2259,3.2247,3.2242,3.2242,3.2242,3.2242,3.2242,3.2242,3.1353,3.142,3.1464,3.1558,3.1613,3.1684,3.1722,3.1776,3.1828,3.1914,3.1969,3.2015,3.208,3.2153,3.2212,3.223,3.2252,3.2246,3.2267,3.2262,3.2263,3.2265,3.2254,3.225,3.225,3.2267,3.2267,3.2268]},{"header":{"parameterUnit":"m.s-1","parameterCategory":1,"la1":30.2991,"la2":30.254,"lo1":-89.0895,"lo2":-89.0444,"dy":0.0017,"dx":0.0017,"nx":28,"ny":28,"refTime":"2025-05-30T03:00:00:Z","depth":0,"parameterNumber":3,"parameterNumberName":"V-component_of_WINDS"},"data":[0,0,0,0,0,0,0,0,0,0,0,0,0,0,0,0,0,0,0,0,0,0,0,0,0,0,0,0,0,0,0,0,0,0,0,0,0,0,0,0,0,0,0,0,0,0,0,0,0,0,0,0,0,0,0,0,0,0,1.2744,1.2746,0,1.2932,1.2935,1.2937,1.3064,1.3064,1.3065,1.3066,1.3261,1.3265,1.3269,0,0,0,0,0,0,0,0,0,0,0,0,0,1.2495,1.2499,1.2744,1.2746,1.2749,1.2932,1.2935,1.2937,1.3063,1.3065,1.3066,1.3067,1.326,1.3265,1.327,0,0,0,0,0,0,0,0,0,0,0,0,0,1.2635,1.25,1.2743,1.2834,1.2844,1.2932,1.2935,1.2938,1.3063,1.3065,1.3066,1.3067,1.3258,1.3264,1.3271,1.3284,0,0,1.3291,1.3293,0,0,0,0,0,0,0,0,1.2627,1.2644,1.2818,1.2828,1.2839,1.2976,1.2919,1.3054,1.3063,1.298,1.3066,1.3068,1.3165,1.3179,1.3212,1.3294,1.3302,1.3291,1.3295,1.3298,1.33,0,0,0,0,0,0,0,1.2617,1.2637,1.2819,1.282,1.2833,1.2865,1.2887,1.2945,1.3063,1.2987,1.2997,1.3017,1.3171,1.3205,1.3217,1.3305,1.3291,1.3297,1.3301,1.3303,1.3406,1.3405,0,0,0,0,0,0,1.2593,1.2628,1.2813,1.2824,1.2734,1.2869,1.2893,1.2931,1.3063,1.3084,1.3016,1.3023,1.3193,1.321,1.3225,1.3247,1.3298,1.3304,1.3308,1.3407,1.3406,1.3405,0,0,0,0,0,0,1.2587,1.2609,1.2805,1.2729,1.2756,1.2872,1.2913,1.2934,1.2968,1.3084,1.3106,1.3029,1.3195,1.3216,1.3268,1.3256,1.3307,1.3313,1.3409,1.3407,1.3405,1.3294,0,0,0,0,0,0,1.258,1.2606,1.2611,1.2728,1.276,1.2844,1.2913,1.2936,1.2978,1.2989,1.3102,1.3122,1.3198,1.3258,1.3275,1.3266,1.3318,1.341,1.3408,1.3406,1.3299,1.3288,1.3279,0,0,0,0,0,1.257,1.2573,1.2611,1.2632,1.2769,1.2843,1.2861,1.2948,1.2977,1.2984,1.3059,1.3119,1.3256,1.3262,1.3282,1.3275,1.3411,1.3409,1.3406,1.3303,1.329,1.3279,0,0,0,0,0,0,1.2452,1.259,1.2633,1.2674,1.2746,1.2864,1.2875,1.2932,1.2997,1.3004,1.3109,1.3134,1.3175,1.3232,1.3236,1.3295,1.3341,1.3342,1.3256,1.3244,1.3235,1.3218,1.3323,0,0,0,0,0,1.2431,1.2479,1.2597,1.2621,1.2655,1.2759,1.2794,1.2855,1.2934,1.2965,1.3044,1.3118,1.3178,1.3215,1.3277,1.3309,1.3335,1.3315,1.3305,1.3296,1.3295,1.3314,1.3305,1.3396,1.3396,1.3396,0,0,1.2387,1.2468,1.2492,1.26,1.2662,1.2709,1.2783,1.2831,1.2866,1.2972,1.3025,1.3086,1.3177,1.3218,1.3241,1.3267,1.3276,1.3293,1.3285,1.3288,1.331,1.3301,1.3294,1.3394,1.3394,1.3395,0,0,1.233,1.2398,1.2424,1.2485,1.2579,1.2649,1.2655,1.2766,1.2809,1.2865,1.2945,1.299,1.3092,1.3152,1.3196,1.3164,1.322,1.3182,1.3128,1.3146,1.3138,1.3133,1.3118,1.3111,1.3181,1.318,1.318,0,1.2263,1.2337,1.2431,1.2472,1.2517,1.2615,1.2642,1.2698,1.2807,1.2836,1.2864,1.2992,1.3061,1.3117,1.3109,1.3143,1.3152,1.3167,1.3132,1.3127,1.3123,1.311,1.3104,1.3175,1.3175,1.3176,1.3176,0,1.2249,1.2299,1.2309,1.241,1.2457,1.2492,1.2591,1.2627,1.2684,1.275,1.2805,1.2891,1.2971,1.299,1.3047,1.3054,1.3066,1.3112,1.3159,1.3107,1.3096,1.3092,1.3166,1.3169,1.317,1.3172,0,0,1.2118,1.2273,1.2274,1.2321,1.2433,1.2474,1.2514,1.2591,1.2618,1.2692,1.2726,1.2811,1.2853,1.2903,1.2968,1.2984,1.2949,1.3028,1.3032,1.3007,1.2959,1.292,1.2913,1.299,1.2989,1.2989,1.295,0,1.2075,1.2149,1.2235,1.2279,1.2325,1.2421,1.2456,1.2528,1.2592,1.2641,1.2713,1.2769,1.2823,1.2853,1.2874,1.2949,1.294,1.2954,1.302,1.3022,1.2989,1.2908,1.2868,1.2827,1.2947,1.2947,1.2946,0,1.2033,1.21,1.2148,1.2255,1.2278,1.2307,1.2384,1.2431,1.2516,1.2561,1.2617,1.2687,1.2733,1.2778,1.2843,1.2849,1.2883,1.2925,1.2925,1.2931,1.2977,1.2907,1.2816,1.2808,1.2941,1.2942,1.2942,0,1.1927,1.2031,1.2072,1.211,1.2237,1.2255,1.2309,1.2395,1.2436,1.2505,1.2533,1.2607,1.2646,1.2702,1.279,1.2815,1.2844,1.2897,1.2881,1.2878,1.2878,1.2876,1.2786,1.2908,1.2908,1.2908,1.2908,0,1.1867,1.1891,1.2026,1.2051,1.2082,1.2183,1.221,1.2273,1.2349,1.2388,1.2478,1.2513,1.2629,1.2678,1.2748,1.2789,1.2808,1.2844,1.2862,1.2833,1.2828,1.2853,1.2856,1.2906,1.2907,1.2907,1.2907,0,1.1751,1.1843,1.1894,1.2011,1.2041,1.2058,1.2158,1.2186,1.2257,1.2305,1.2322,1.2432,1.2494,1.2589,1.268,1.2727,1.2755,1.2787,1.2725,1.2735,1.2712,1.271,1.2631,1.2624,1.2753,1.2752,1.2751,0,1.1704,1.1725,1.1844,1.1876,1.1926,1.1978,1.202,1.2121,1.2161,1.226,1.2276,1.2345,1.2405,1.25,1.2588,1.2658,1.2689,1.2657,1.2699,1.267,1.2683,1.2678,1.2679,1.2644,1.2642,1.264,1.2639,0,1.1608,1.1653,1.1709,1.1782,1.1829,1.1892,1.1959,1.198,1.2097,1.2138,1.2202,1.2248,1.2341,1.2407,1.249,1.2547,1.261,1.2626,1.2625,1.2593,1.2554,1.257,1.2692,1.2626,1.2627,1.2628,1.2629,1.2629,1.1522,1.1544,1.1631,1.1691,1.1752,1.1813,1.1844,1.1919,1.1974,1.2056,1.2114,1.2174,1.2259,1.2376,1.243,1.2478,1.2506,1.2506,1.2505,1.2502,1.249,1.2551,1.2495,1.2495,1.2496,1.2496,1.2496,0,1.1426,1.1487,1.1542,1.1632,1.168,1.1739,1.1817,1.1852,1.1903,1.1977,1.2035,1.2108,1.2173,1.2268,1.234,1.2361,1.2392,1.2376,1.2372,1.2384,1.2463,1.2454,1.2349,1.2349,1.2349,1.2349,1.2349,1.2349,1.1381,1.1421,1.1476,1.1548,1.161,1.1668,1.1707,1.1763,1.1823,1.19,1.1954,1.2016,1.2098,1.2178,1.224,1.2267,1.2287,1.226,1.2295,1.2365,1.2379,1.2391,1.2383,1.2265,1.2265,1.2212,1.2211,1.2211]}]]